#timestamp,LO_Frequency,Hit,StdDev 
1568242815.4,286047001.8,N
1568242835.3,286047001.9,N
1568242855.1,286047002.5,N
1568242875.9,286046999.8,N
1568242895.7,286047002.7,N
1568242915.5,286047000.3,N
1568242935.4,286046999.9,N
1568242955.2,286047001.0,N
1568243005.1,286046999.8,E
1568243015.0,286047002.1,N
1568243015.9,286047002.1,P
1568243035.7,286047004.4,P
1568243055.6,286047003.6,Y
1568243075.4,286046999.7,P
1568243095.3,286047000.8,N
1568243115.1,286046998.2,N
1568243116.0,286046998.2,N
1568243135.8,286047000.6,N
1568243155.7,286047000.6,N
1568243175.5,286047001.2,N
1568243195.3,286046998.7,N
1568243215.2,286046998.9,N
1568243235.0,286046999.4,N
1568243235.9,286046999.4,N
1568243255.8,286046998.3,N
1568243275.6,286047000.8,N
1568243295.4,286047001.0,N
1568243315.3,286047000.4,N
1568243335.1,286046998.5,N
1568243355.9,286046998.7,N
1568243375.7,286046998.5,N
1568243395.5,286046999.4,N
1568243415.4,286046998.9,N
1568243435.2,286046998.7,N
1568243455.0,286046998.1,N
1568243456.0,286046998.1,N
1568243475.8,286047000.0,N
1568243495.6,286047000.4,N
1568243515.5,286046999.9,N
1568243535.3,286046999.9,N
1568243555.1,286046998.6,N
1568243575.9,286047000.6,N
1568243595.7,286047000.8,N
1568243615.6,286046999.8,N
1568243635.4,286047002.6,N
1568243655.2,286047002.2,N
1568243675.1,286047002.1,N
1568243676.0,286047002.1,N
1568243695.8,286047004.2,Y
1568243715.7,286047004.0,P
1568243735.5,286047000.0,N
1568243755.3,286047000.1,N
1568243775.2,286047001.1,N
1568243795.0,286047000.9,N
1568243795.9,286047000.9,N
1568243815.8,286047000.0,N
1568243835.6,286047000.3,N
1568243855.4,286047000.2,N
1568243875.3,286047000.2,N
1568243895.1,286047001.0,N
1568243915.8,286046998.8,N
1568243935.7,286046999.8,N
1568243955.5,286047000.5,N
1568243975.4,286046998.5,N
1568243995.2,286047001.2,N
1568244015.0,286047000.1,N
1568244015.9,286047000.1,N
1568244035.8,286046999.7,N
1568244055.6,286047002.2,N
1568244075.5,286047002.8,N
1568244095.3,286047000.4,N
1568244115.1,286047000.0,N
1568244135.9,286047002.5,N
1568244155.7,286047003.5,N
1568244175.5,286047003.7,N
1568244195.4,286047003.9,N
1568244215.2,286047001.6,N
1568244235.1,286047003.8,N
1568244236.0,286047003.8,N
1568244255.8,286047003.9,N
1568244275.6,286047003.9,N
1568244295.5,286047005.3,Y
1568244315.3,286047006.0,P
1568244335.2,286047003.3,N
1568244355.0,286047004.1,N
1568244355.9,286047004.1,N
1568244375.7,286047003.2,N
1568244395.6,286047003.6,N
1568244415.4,286047003.1,N
1568244435.3,286047002.9,N
1568244455.1,286047003.0,N
1568244456.0,286047003.0,N
1568244475.8,286047005.6,Y
1568244495.7,286047002.8,P
1568244515.5,286047002.7,P
1568244535.4,286047002.4,P
1568244555.2,286047001.7,Y
1568244575.0,286046998.1,P
1568244575.9,286046998.1,N
1568244595.8,286046999.4,N
1568244615.6,286046996.6,N
1568244635.5,286046998.9,N
1568244655.3,286046999.2,N
1568244675.1,286046996.9,N
1568244695.9,286046999.6,N
1568244715.7,286046998.3,N
1568244735.5,286046998.4,N
1568244755.4,286046996.6,N
1568244775.2,286046999.3,N
1568244795.1,286046997.2,N
1568244796.0,286046997.2,N
1568244815.8,286046997.5,N
1568244835.6,286046997.0,N
1568244855.5,286046996.8,N
1568244875.3,286046997.8,N
1568244895.1,286046995.3,Y
1568244915.9,286046999.6,P
1568244935.7,286046996.7,P
1568244955.6,286046996.8,N
1568244975.4,286046997.0,N
1568244995.2,286046999.5,N
1568245015.1,286046999.1,N
1568245016.0,286046999.1,N
1568245035.8,286046999.6,N
1568245055.7,286046997.0,N
1568245075.5,286046997.2,N
1568245095.3,286046996.8,N
1568245115.2,286046998.0,N
1568245135.0,286046997.4,N
1568245135.9,286046997.4,N
1568245155.8,286046997.7,N
1568245175.6,286046997.1,N
1568245195.4,286046997.5,N
1568245215.3,286046998.0,N
1568245235.1,286046997.9,N
1568245255.9,286046995.7,Y
1568245275.7,286046996.9,P
1568245295.5,286046997.0,P
1568245315.4,286046997.0,P
1568245335.2,286046999.6,N
1568245355.0,286046999.4,N
1568245355.9,286046999.4,N
1568245375.8,286046996.7,N
1568245395.6,286046997.3,N
1568245415.5,286046997.0,N
1568245435.4,286046994.9,Y
1568245455.2,286046996.9,P
1568245475.1,286046999.3,N
1568245476.0,286046999.3,N
1568245495.8,286046998.5,N
1568245515.6,286046998.2,N
1568245535.5,286046998.4,N
1568245555.3,286047001.2,N
1568245575.1,286047000.0,N
1568245595.9,286046998.2,N
1568245615.7,286047001.1,N
1568245635.6,286047001.2,N
1568245655.4,286047000.8,N
1568245675.2,286047000.9,N
1568245695.1,286046998.2,N
1568245696.0,286046998.2,N
1568245715.8,286046998.2,N
1568245735.7,286047000.2,N
1568245755.5,286047000.7,N
1568245775.3,286046998.1,N
1568245795.2,286047000.5,N
1568245815.0,286047001.2,N
1568245815.9,286047001.2,N
1568245835.7,286047000.0,N
1568245855.6,286046998.3,N
1568245875.4,286046998.3,N
1568245895.3,286046997.3,N
1568245915.1,286046997.7,N
1568245916.0,286046997.7,N
1568245935.8,286046994.9,Y
1568245955.7,286046998.0,P
1568245975.5,286046997.8,P
1568245995.4,286046996.9,P
1568246015.2,286046996.9,Y
1568246035.0,286047001.2,P
1568246035.9,286047001.2,N
1568246055.8,286047000.8,N
1568246075.6,286046999.9,N
1568246095.5,286047000.2,N
1568246115.3,286047000.1,N
1568246135.1,286047000.6,N
1568246155.9,286047002.3,N
1568246175.7,286046999.7,N
1568246195.5,286047002.3,N
1568246215.4,286047000.2,N
1568246235.2,286047000.9,N
1568246255.1,286047000.2,N
1568246256.0,286047000.2,N
1568246275.8,286047000.1,N
1568246295.6,286047000.4,N
1568246315.5,286047001.0,N
1568246335.3,286046999.9,N
1568246355.1,286047000.4,N
1568246375.9,286047000.8,N
1568246395.7,286046999.7,N
